N1BSO Weather Reports


time (UTC)temp
F
wind
direction
speed
knots
gust
knots
rain 1hr
in
rain 24hr
in
rain mn
in
humidity
%
barometer
mb
20260507091557 51 231 0.9 6.1 0.07 0.29 0.19 94 1007.0
20260507090054 52 331 1.7 8.7 0.13 0.29 0.19 94 1006.4
20260507084602 53 318 0.9 4.3 0.18 0.28 0.18 95 1006.1
20260507083057 54 0 0.0 2.6 0.17 0.27 0.17 95 1006.2
20260507081554 54 287 0.9 5.2 0.12 0.22 0.12 95 1006.2
20260507080117 55 298 0.9 6.1 0.06 0.16 0.06 95 1006.3
20260507074558 56 309 0.0 3.5 0.00 0.10 0.00 96 1005.8
20260507073105 56 0 0.0 0.9 0.00 0.10 0.00 96 1005.1
20260507071556 56 272 0.0 3.5 0.00 0.10 0.00 96 1005.2
20260507070056 56 0 0.0 0.9 0.00 0.10 0.00 96 1005.3
20260507064600 56 0 0.0 0.9 0.00 0.10 0.00 96 1005.3
20260507063105 56 0 0.0 1.7 0.00 0.10 0.00 96 1005.3
20260507061558 56 192 0.9 2.6 0.00 0.10 0.00 96 1005.6
20260507060056 56 0 0.9 3.5 0.00 0.10 0.00 96 1005.8
20260507054557 56 292 0.0 4.3 0.00 0.10 0.00 96 1005.7
20260507053108 56 259 0.0 3.5 0.00 0.10 0.00 96 1005.8
20260507051557 56 247 1.7 5.2 0.00 0.10 0.00 96 1006.0
20260507050058 56 319 0.0 7.0 0.00 0.10 0.00 96 1006.5
20260507044608 56 313 0.9 5.2 0.00 0.10 0.00 96 1006.1
20260507043058 56 217 1.7 6.1 0.00 0.10 0.00 96 1006.1
20260507041559 56 256 0.9 7.0 0.00 0.10 0.00 96 1006.2
20260507034559 56 290 0.9 9.6 0.00 0.10 0.10 95 1006.5
20260507033109 56 211 1.7 7.0 0.00 0.10 0.10 95 1006.5
20260507031559 56 232 2.6 9.6 0.00 0.10 0.10 95 1006.4
20260507024605 56 140 2.6 10.4 0.00 0.10 0.10 95 1005.9
20260507023054 56 167 3.5 8.7 0.00 0.10 0.10 95 1006.1
20260507021556 56 0 2.6 7.0 0.00 0.10 0.10 95 1006.2
20260507020112 56 180 3.5 9.6 0.00 0.10 0.10 95 1006.5
20260507014605 56 257 1.7 8.7 0.00 0.10 0.10 95 1006.6
20260507013058 56 165 2.6 8.7 0.01 0.10 0.10 95 1006.7
20260507011556 56 290 2.6 8.7 0.01 0.10 0.10 95 1006.9
20260507004602 57 259 3.5 9.6 0.02 0.10 0.10 95 1006.8
20260507003055 57 205 2.6 14.8 0.01 0.09 0.09 94 1006.9
20260507001556 57 304 4.3 17.4 0.03 0.09 0.09 95 1006.7
20260507000056 57 346 2.6 15.6 0.05 0.09 0.09 95 1006.9
20260506234555 57 178 3.5 8.7 0.05 0.08 0.08 94 1006.7
20260506233111 57 212 2.6 10.4 0.06 0.08 0.08 94 1006.8
20260506231600 57 204 3.5 9.6 0.04 0.06 0.06 93 1007.0
20260506230056 58 179 2.6 10.4 0.02 0.04 0.04 93 1006.7
20260506224600 58 257 2.6 12.2 0.01 0.03 0.03 92 1006.8
20260506223057 59 231 4.3 13.9 0.00 0.02 0.02 91 1007.3
20260506221611 59 156 2.6 17.4 0.00 0.02 0.02 91 1007.2
20260506220056 59 173 2.6 10.4 0.00 0.02 0.02 91 1007.2
20260506214557 60 243 1.7 9.6 0.01 0.02 0.02 91 1007.3
20260506213115 60 138 1.7 12.2 0.01 0.02 0.02 89 1007.3
20260506211558 61 233 2.6 10.4 0.01 0.02 0.02 88 1007.8
20260506210058 60 212 3.5 15.6 0.02 0.02 0.02 88 1007.5
20260506204556 60 194 3.5 16.5 0.01 0.01 0.01 89 1007.6
20260506203059 60 304 4.3 12.2 0.01 0.01 0.01 89 1007.8
20260506201555 60 158 3.5 13.0 0.01 0.01 0.01 88 1007.9
20260506200055 62 274 3.5 12.2 0.00 0.00 0.00 84 1008.2
20260506194602 63 171 4.3 11.3 0.00 0.00 0.00 79 1008.3
20260506193058 63 290 5.2 17.4 0.00 0.00 0.00 78 1008.2
20260506191556 64 238 6.1 20.0 0.00 0.00 0.00 77 1008.3
20260506190058 64 241 7.0 17.4 0.00 0.00 0.00 77 1007.9
20260506184556 64 213 7.8 21.7 0.00 0.00 0.00 76 1008.1
20260506183104 65 288 3.5 15.6 0.00 0.00 0.00 76 1008.4
20260506181621 65 116 6.1 21.7 0.00 0.00 0.00 75 1008.8
20260506180058 66 155 5.2 20.0 0.00 0.00 0.00 73 1009.2
20260506174559 67 217 6.1 20.0 0.00 0.00 0.00 72 1009.8
20260506173108 67 184 6.1 21.7 0.00 0.00 0.00 73 1009.3
20260506171602 67 244 6.1 20.0 0.00 0.00 0.00 72 1009.3
20260506170058 67 220 8.7 22.6 0.00 0.00 0.00 74 1009.4
20260506164607 67 182 7.0 19.1 0.00 0.00 0.00 72 1009.9
20260506163058 67 209 6.1 16.5 0.00 0.00 0.00 72 1009.8
20260506161557 67 171 7.8 23.5 0.00 0.00 0.00 71 1010.0
20260506160105 68 271 6.1 21.7 0.00 0.00 0.00 71 1010.1
20260506154602 68 297 7.0 21.7 0.00 0.00 0.00 71 1010.5
20260506153112 67 231 4.3 19.1 0.00 0.00 0.00 72 1010.4
20260506151556 68 206 5.2 13.9 0.00 0.00 0.00 71 1010.7
20260506144559 68 171 3.5 11.3 0.00 0.00 0.00 70 1010.3
20260506143059 68 175 4.3 15.6 0.00 0.00 0.00 70 1010.3
20260506141555 68 141 5.2 17.4 0.00 0.00 0.00 70 1010.2
20260506134556 66 270 5.2 17.4 0.00 0.00 0.00 74 1011.0
20260506133056 65 279 5.2 13.9 0.00 0.00 0.00 76 1011.0
20260506131556 64 202 4.3 8.7 0.00 0.00 0.00 78 1010.8
20260506130058 63 286 5.2 9.6 0.00 0.00 0.00 79 1010.9
20260506124601 62 317 5.2 16.5 0.00 0.00 0.00 81 1010.7
20260506123057 61 234 5.2 12.2 0.00 0.00 0.00 83 1010.9
20260506121556 60 234 3.5 13.9 0.00 0.00 0.00 84 1011.3
20260506120058 60 185 4.3 14.8 0.00 0.00 0.00 84 1011.3
20260506114559 60 301 7.0 13.0 0.00 0.00 0.00 85 1011.5
20260506113058 59 185 3.5 12.2 0.00 0.00 0.00 86 1011.5
20260506111555 59 185 4.3 13.0 0.00 0.00 0.00 87 1011.5
20260506110058 59 241 3.5 13.0 0.00 0.00 0.00 87 1011.5
20260506104600 58 239 2.6 8.7 0.00 0.00 0.00 87 1011.4
20260506103057 58 231 4.3 10.4 0.00 0.00 0.00 87 1011.4
20260506101555 59 232 2.6 11.3 0.00 0.00 0.00 87 1011.3
20260506100056 58 184 3.5 13.0 0.00 0.00 0.00 87 1011.1
20260506094555 58 339 4.3 12.2 0.00 0.00 0.00 87 1011.2
20260506093057 58 210 3.5 11.3 0.00 0.00 0.00 87 1011.1